Starlink 33817

operational
NORAD ID: 63583 Int'l Des: 2025-076 Owner: SPXS Country: US Constellation: starlink
LEOCIRCULAR

Über Starlink 33817

Beschreibung wird geladen...

Live-Position

3D-Globus wird geladen...

Nächste Überflüge

Höhenverlauf

Altitude vs Time

uPlot chart will show altitude changes over time

Zweizeiliger Elementsatz

1 63583U 25076Q 26036.31855553 .00049628 00000-0 17987-2 0 9990
2 63583 43.0001 144.1617 0001106 264.6048 95.4678 15.27619878 46875
Epoch: 5. Feb. 2026 • Age: 7 hours

Aktueller Status

Höhe 486.0 km
Geschwindigkeit 7.63 km/s
Subsatellitenpunkt 39.76°N, 143.93°W
Startdatum 14. Apr. 2025
Alter 0.8 years
Typ internet

Technische Details

Klassifizierung Payload
Masse 575.00 kg
Trockenmasse 530.00 kg
Gesamtmasse 575.00 kg
Länge 0.30 m
Durchmesser 4.10 m
Spannweite 29.00 m
Form Box + pan
Hersteller SPXS
Bus-Typ Starlink V2MO
Phasenstatus In Orbit
Besitzer/Staat SPXS/US

Große Konstellationen

Loading constellations...